Regional Weather Roundup
Issued by NWS State College, PA

Home | Current Version | Previous Version | Text Only | Print | Product List | Glossary On
Versions: 1 2 3 4 5 6 7 8 9 10 11 12 13 14 15 16 17 18 19 20 21 22 23 24 25 26 27 28 29 30 31 32 33 34 35 36 37 38 39 40 41 42 43 44 45 46 47 48 49 50
000
ASUS41 KCTP 131003
RWRCTP

REGIONAL WEATHER ROUNDUP
NATIONAL WEATHER SERVICE STATE COLLEGE PA
600 AM EDT SUN JUL 13 2014

Note: "fair" indicates few or no clouds below 12,000 feet with no
significant weather and/or obstructions to visibility.

* = STATION THAT DOES NOT REPORT PRECIPITATION /E.G. RAIN...SNOW...ETC/
    THUNDER OR FOG.

PAZ002>004-007>009-013>016-020>023-029>032-131100-
WESTERN PENNSYLVANIA

CITY           SKY/WX    TMP DP  RH WIND       PRES   REMARKS
ERIE           CLOUDY    71  65  81 S15       29.88F
MEADVILLE      CLOUDY    68  65  90 S7        29.96F
FRANKLIN*      CLOUDY    70  61  73 SW6       30.01R
NEW CASTLE       N/A     69  66  90 CALM      29.97F
BEAVER COUNTY  NOT AVBL
BUTLER*        MOCLDY    72  61  68 S7        30.02S
PITTSBURGH INT CLOUDY    74  63  68 SW5       30.00S
PITTSBURGH     MOCLDY    72  61  68 S8        30.00F
INDIANA*       CLOUDY    68  61  77 CALM      30.06S
LATROBE        MOCLDY    72  64  78 S7        30.03F
WASHINGTON CO* MOCLDY    68  63  83 CALM      30.02F
$$

PAZ004>006-010>012-017>019-024>028-033>037-041-042-045-046-049>053-131100-
CENTRAL PENNSYLVANIA

CITY           SKY/WX    TMP DP  RH WIND       PRES   REMARKS
BRADFORD       MOCLDY    69  59  70 S8        30.00F
DUBOIS         MOCLDY    71  60  68 SW7       30.01F
CLEARFIELD     MOCLDY    63  62  97 N3        30.03S FOG
JOHNSTOWN      PTCLDY    69  58  67 SW9       30.08S
ALTOONA        PTCLDY    66  64  93 CALM      30.06F FOG
STATE COLLEGE  CLEAR     66  64  94 CALM      30.02F
WILLIAMSPORT   CLOUDY    73  66  78 E9        29.98F
SELINSGROVE    PTCLDY    71  68  90 CALM      30.02F
FT INDIANTOWN  CLOUDY    71  71 100 CALM      30.06F
CAPITAL CITY   MOCLDY    73  68  84 S3        30.04F
HARRISBURG     MOCLDY    74  68  81 S3        30.04F
YORK           MOCLDY    73  68  84 SW5       30.05S
$$

PAZ038>040-043-044-047-048-054-055-060>062-067>071-131100-
EASTERN PENNSYLVANIA

CITY           SKY/WX    TMP DP  RH WIND       PRES   REMARKS
SCRANTON       PTCLDY    72  66  81 CALM      30.04F
MOUNT POCONO   CLOUDY    69  65  86 SW9       30.11F
ALLENTOWN      CLOUDY    73  66  78 S6        30.07F
QUAKERTOWN*    CLOUDY    70  66  88 S5        30.10S
READING        MOCLDY    74  69  85 S7        30.05F
LANCASTER      CLOUDY    73  69  87 S6        30.06F
COATESVILLE    CLOUDY    70  70 100 SE3       30.10S FOG
POTTSTOWN      CLOUDY    71  67  87 S5        30.10F
BLUE BELL      CLOUDY    72  68  88 CALM      30.08F
DOYLESTOWN     MOCLDY    69  67  93 S6        30.09S
WILLOW GROVE   NOT AVBL
NORTH PHILA    PTCLDY    73  67  81 S7        30.10F
PHILADELPHIA   CLOUDY    72  66  81 S7        30.10F
$$


USA.gov is the U.S. government's official web portal to all federal, state and local government web resources and services.